Date String (YYYY-MM-DD hh:mm:ss) UTC,Instrument flags,Ambient pressure (hPa),Sample flow (lpm),Bypass flow (lpm),Sample temperature (°C),Ambient temperature (°C),ASC tube jacket temperature (°C),LED temperature (°C),Box temperature (°C),Sample RH (%),Span deviation,Mass concentration (μg/m³),Mass concentration (μg/m³),Mass concentration (μg/m³)
DateTimeUTC,F1_M11,P_M11,Q1_M11,Q2_M11,T1_M11,T2_M11,T3_M11,T4_M11,T5_M11,U1_M11,ZSPAN_M11,X0_M11,X2_M11,X1_M11
2022-10-19 06:00:00,,0832.8,5.00,0.00,28.5,26.7,00.0,37.4,30.1,10.4,0000.0,0009.93,0003.36,0002.60
2022-10-19 06:01:00,,0832.9,4.99,0.00,28.5,26.7,00.0,37.4,30.1,10.4,0000.0,0009.54,0003.35,0002.63
2022-10-19 06:02:00,,0832.8,5.02,0.00,28.4,26.7,00.0,37.4,30.0,10.6,0000.0,0009.44,0003.32,0002.64
2022-10-19 06:03:00,,0832.9,5.00,0.00,28.4,26.7,00.0,37.4,30.1,10.6,0000.0,0009.26,0003.32,0002.66
2022-10-19 06:04:00,,0832.9,4.99,0.00,28.4,26.7,00.0,37.4,30.1,10.6,0000.0,0008.76,0003.33,0002.67
2022-10-19 06:05:00,,0832.8,5.00,0.00,28.4,26.7,00.0,37.4,30.1,10.6,0000.0,0008.83,0003.37,0002.69
2022-10-19 06:06:00,,0832.8,4.99,0.00,28.4,26.7,00.0,37.4,30.2,10.6,0000.0,0009.11,0003.37,0002.71
2022-10-19 06:07:00,,0832.9,5.00,0.00,28.4,26.7,00.0,37.4,30.1,10.7,0000.0,0009.02,0003.39,0002.72
2022-10-19 06:08:00,,0832.9,5.01,0.00,28.4,26.7,00.0,37.3,30.1,10.7,0000.0,0009.42,0003.42,0002.74
2022-10-19 06:09:00,,0832.9,4.99,0.00,28.4,26.7,00.0,37.3,30.1,10.7,0000.0,0009.44,0003.41,0002.74
2022-10-19 06:10:00,,0832.9,5.00,0.00,28.4,26.7,00.0,37.3,30.1,10.7,0000.0,0008.79,0003.41,0002.75
2022-10-19 06:11:00,,0832.9,5.00,0.00,28.4,26.7,00.0,37.3,30.1,10.7,0000.0,0008.05,0003.42,0002.77
2022-10-19 06:12:00,,0832.8,5.00,0.00,28.4,26.6,00.0,37.3,30.0,10.7,0000.0,0008.04,0003.44,0002.79
2022-10-19 06:13:00,,0832.8,5.00,0.00,28.4,26.6,00.0,37.3,30.0,10.7,0000.0,0007.71,0003.44,0002.82
2022-10-19 06:14:00,,0832.8,5.00,0.00,28.3,26.6,00.0,37.3,30.0,10.7,0000.0,0007.59,0003.47,0002.85
2022-10-19 06:15:00,,0832.9,5.01,0.00,28.3,26.6,00.0,37.3,30.0,10.7,0000.0,0007.48,0003.45,0002.85
2022-10-19 06:16:00,,0832.8,5.00,0.00,28.3,26.6,00.0,37.3,30.0,10.7,0000.0,0007.57,0003.43,0002.86
2022-10-19 06:17:00,,0832.8,4.99,0.00,28.3,26.6,00.0,37.3,30.0,10.7,0000.0,0007.69,0003.46,0002.88
2022-10-19 06:18:00,,0832.8,5.01,0.00,28.3,26.6,00.0,37.3,29.9,10.7,0000.0,0007.29,0003.46,0002.90
2022-10-19 06:19:00,,0832.8,4.98,0.00,28.3,26.6,00.0,37.3,30.0,10.7,0000.0,0007.47,0003.45,0002.91
2022-10-19 06:20:00,,0832.8,4.99,0.00,28.3,26.6,00.0,37.2,29.9,10.7,0000.0,0007.83,0003.48,0002.93
2022-10-19 06:21:00,,0832.9,5.01,0.00,28.3,26.6,00.0,37.2,30.0,10.7,0000.0,0008.40,0003.51,0002.95
2022-10-19 06:22:00,,0832.8,4.99,0.00,28.3,26.6,00.0,37.2,29.9,10.6,0000.0,0008.72,0003.53,0002.95
2022-10-19 06:23:00,,0832.8,5.00,0.00,28.2,26.6,00.0,37.2,29.9,10.5,0000.0,0008.97,0003.57,0002.93
2022-10-19 06:24:00,,0832.8,5.00,0.00,28.2,26.5,00.0,37.2,29.9,10.5,0000.0,0009.22,0003.61,0002.91
2022-10-19 06:25:00,,0832.8,5.00,0.00,28.2,26.5,00.0,37.2,29.9,10.6,0000.0,0009.27,0003.63,0002.90
2022-10-19 06:26:00,,0832.8,5.01,0.00,28.2,26.6,00.0,37.2,29.9,10.6,0000.0,0009.37,0003.66,0002.92
2022-10-19 06:27:00,,0832.8,5.00,0.00,28.2,26.6,00.0,37.2,30.0,10.5,0000.0,0009.28,0003.66,0002.92
2022-10-19 06:28:00,,0832.8,5.00,0.00,28.2,26.6,00.0,37.2,30.0,10.3,0000.0,0009.10,0003.62,0002.88
2022-10-19 06:29:00,,0832.8,5.00,0.00,28.2,26.5,00.0,37.2,29.9,10.3,0000.0,0009.18,0003.64,0002.85
2022-10-19 06:30:00,,0832.8,5.00,0.00,28.2,26.5,00.0,37.1,29.9,10.3,0000.0,0008.90,0003.63,0002.83
2022-10-19 06:31:00,,0832.8,4.98,0.00,28.2,26.5,00.0,37.1,29.9,10.2,0000.0,0008.32,0003.59,0002.80
2022-10-19 06:32:00,,0832.8,5.02,0.00,28.2,26.5,00.0,37.1,29.9,10.1,0000.0,0007.81,0003.55,0002.76
2022-10-19 06:33:00,,0832.8,5.00,0.00,28.2,26.5,00.0,37.1,29.9,10.2,0000.0,0007.61,0003.51,0002.72
2022-10-19 06:34:00,,0832.8,5.01,0.00,28.2,26.5,00.0,37.1,29.9,10.1,0000.0,0007.49,0003.50,0002.70
2022-10-19 06:35:00,,0832.9,4.99,0.00,28.2,26.5,00.0,37.1,29.9,10.0,0000.0,0008.16,0003.46,0002.67
2022-10-19 06:36:00,,0832.9,5.00,0.00,28.2,26.5,00.0,37.1,29.9,10.0,0000.0,0008.80,0003.42,0002.63
2022-10-19 06:37:00,,0832.9,5.01,0.00,28.2,26.5,00.0,37.1,29.9,10.2,0000.0,0008.77,0003.36,0002.58
2022-10-19 06:38:00,,0832.9,5.02,0.00,28.1,26.5,00.0,37.1,29.9,10.1,0000.0,0008.77,0003.31,0002.54
2022-10-19 06:39:00,,0832.9,5.00,0.00,28.1,26.5,00.0,37.1,29.8,10.2,0000.0,0008.50,0003.28,0002.53
2022-10-19 06:40:00,,0832.8,4.99,0.00,28.1,26.4,00.0,37.1,29.8,10.1,0000.0,0008.31,0003.23,0002.52
2022-10-19 06:41:00,,0832.8,5.01,0.00,28.1,26.4,00.0,37.1,29.9,10.2,0000.0,0008.22,0003.21,0002.51
2022-10-19 06:42:00,,0832.8,5.00,0.00,28.1,26.4,00.0,37.1,29.8,10.3,0000.0,0008.32,0003.21,0002.52
2022-10-19 06:43:00,,0832.8,5.01,0.00,28.1,26.4,00.0,37.1,29.9,10.3,0000.0,0008.37,0003.22,0002.52
2022-10-19 06:44:00,,0832.8,4.99,0.00,28.1,26.4,00.0,37.0,29.9,10.4,0000.0,0008.80,0003.19,0002.53
2022-10-19 06:45:00,,0832.8,5.01,0.00,28.1,26.4,00.0,37.0,29.9,10.3,0000.0,0008.70,0003.18,0002.54
2022-10-19 06:46:00,,0832.8,4.99,0.00,28.1,26.4,00.0,37.0,29.8,10.3,0000.0,0007.84,0003.17,0002.57
2022-10-19 06:47:00,,0832.8,5.00,0.00,28.1,26.4,00.0,37.0,29.9,10.4,0000.0,0007.72,0003.19,0002.59
2022-10-19 06:48:00,,0832.8,5.00,0.00,28.1,26.5,00.0,37.0,29.9,10.4,0000.0,0008.10,0003.20,0002.61
2022-10-19 06:49:00,,0832.8,5.00,0.00,28.1,26.4,00.0,37.0,29.9,10.5,0000.0,0008.51,0003.24,0002.65
2022-10-19 06:50:00,,0832.9,4.99,0.00,28.1,26.4,00.0,37.0,29.9,10.6,0000.0,0008.70,0003.29,0002.68
2022-10-19 06:51:00,,0832.8,5.00,0.00,28.1,26.5,00.0,37.0,29.9,10.6,0000.0,0009.72,0003.32,0002.72
2022-10-19 06:52:00,,0832.9,4.98,0.00,28.1,26.4,00.0,37.0,29.9,10.6,0000.0,0010.09,0003.35,0002.76
2022-10-19 06:53:00,,0832.9,4.99,0.00,28.1,26.5,00.0,37.0,29.9,10.6,0000.0,0010.40,0003.36,0002.79
2022-10-19 06:54:00,,0833.0,5.00,0.00,28.1,26.5,00.0,37.0,29.9,10.6,0000.0,0011.79,0003.37,0002.81
2022-10-19 06:55:00,,0833.0,5.00,0.00,28.1,26.5,00.0,37.0,29.9,10.6,0000.0,0012.77,0003.46,0002.86
2022-10-19 06:56:00,,0833.0,5.01,0.00,28.1,26.5,00.0,37.0,29.9,10.6,0000.0,0012.92,0003.47,0002.88
2022-10-19 06:57:00,,0833.0,5.00,0.00,28.1,26.5,00.0,37.0,29.9,10.6,0000.0,0013.37,0003.51,0002.91
2022-10-19 06:58:00,,0833.0,4.98,0.00,28.1,26.5,00.0,37.0,29.9,10.6,0000.0,0013.39,0003.51,0002.92
2022-10-19 06:59:00,,0833.0,5.00,0.00,28.1,26.5,00.0,37.0,29.9,10.7,0000.0,0012.99,0003.55,0002.95
